Weather History for KMDW - March, 2013

Change the Weather History Date:

Monday, March 18, 2013

  Actual Average Record
Temperature  
Mean Temperature 29 °F 40 °F  
Max Temperature 36 °F 48 °F 81 °F (2012)
Min Temperature 22 °F 32 °F 3 °F (1941)
Degree Days  
Heating Degree Days 36 25  
Month to date heating degree days 575 514  
Since 1 July heating degree days 4727 5025  
Cooling Degree Days 0 0  
Month to date cooling degree days 0 0  
Year to date cooling degree days 0 0  
Moisture  
Dew Point 25 °F    
Average Humidity 79    
Maximum Humidity 93    
Minimum Humidity 47    
Precipitation  
Precipitation 0.02 in 0.09 in 1.04 in (1952)
Month to date precipitation 1.26 1.52  
Year to date precipitation 5.51 5.52  
Sea Level Pressure  
Sea Level Pressure 29.76 in    
Wind  
Wind Speed 14 mph (SE)    
Max Wind Speed 30 mph    
Max Gust Speed 47 mph    
Visibility 6 miles    
Events Rain , Snow    
T = Trace of Precipitation, MM = Missing Value Source: NWS Daily Summary

Daily Weather History Graph

Daily Weather History Graph

Search for Another Location

Airport or City:

Trip Planner

Search our weather history database for the weather conditions in past years. The results will help you decide how hot, cold, wet, or windy it might be!

Date:

Astronomy

Mar. 18, 2013 Rise Set
Actual Time 6:57 AM CDT 7:01 PM CDT
Civil Twilight 6:29 AM CDT 7:29 PM CDT
Nautical Twilight 5:57 AM CDT 8:01 PM CDT
Astronomical Twilight 5:24 AM CDT 8:34 PM CDT
Moon 10:51 AM CDT (3/18) 1:05 AM CDT (3/18)
Length of Visible Light 12h 59m
Length of Day
12h 03m
Waxing Crescent, 41% of the Moon is Illuminated
Mar 18
Waxing Crescent
Mar 19
First Quarter
Mar 27
Full
Apr 2
Last Quarter
Apr 10
New

Hourly Weather History & Observations

Time (CDT) Temp. Windchill Dew Point Humidity Pressure Visibility Wind Dir Wind Speed Gust Speed Precip Events Conditions
12:51 AM 30.9 °F 21.7 °F 21.0 °F 67% 30.02 in 10.0 mi East 11.5 mph 20.7 mph N/A   Overcast
1:22 AM 30.2 °F 19.8 °F 21.2 °F 69% 29.96 in 10.0 mi East 13.8 mph - N/A   Overcast
1:51 AM 30.0 °F 20.5 °F 21.0 °F 69% 29.99 in 10.0 mi East 11.5 mph - N/A   Overcast
1:59 AM 30.2 °F 20.8 °F 21.2 °F 69% 29.95 in 10.0 mi East 11.5 mph - N/A   Overcast
2:51 AM 30.0 °F 20.5 °F 21.0 °F 69% 29.95 in 10.0 mi East 11.5 mph - N/A   Mostly Cloudy
3:51 AM 30.9 °F 21.2 °F 21.9 °F 69% 29.89 in 10.0 mi East 12.7 mph - N/A   Overcast
4:26 AM 30.2 °F 19.8 °F 21.2 °F 69% 29.85 in 10.0 mi ENE 13.8 mph - N/A   Overcast
4:51 AM 30.9 °F 19.8 °F 23.0 °F 72% 29.86 in 7.0 mi East 16.1 mph - 0.00 in Snow Light Snow
5:51 AM 30.9 °F 21.2 °F 24.1 °F 76% 29.83 in 7.0 mi East 12.7 mph - 0.00 in Rain , Snow Light Freezing Rain
6:00 AM 30.2 °F 20.2 °F 24.8 °F 80% 29.80 in 7.0 mi East 12.7 mph - 0.00 in Rain , Snow Light Snow
6:37 AM 30.2 °F 20.2 °F 24.8 °F 80% 29.78 in 7.0 mi East 12.7 mph - 0.00 in Rain , Snow Light Freezing Rain
6:51 AM 30.9 °F 21.2 °F 25.0 °F 79% 29.82 in 7.0 mi East 12.7 mph - 0.00 in Rain , Snow Light Freezing Rain
7:22 AM 30.2 °F 21.9 °F 26.6 °F 86% 29.76 in 4.0 mi ENE 9.2 mph - 0.01 in Rain Light Freezing Rain
7:51 AM 30.9 °F 22.2 °F 27.0 °F 85% 29.78 in 4.0 mi ENE 10.4 mph - 0.01 in Rain Light Freezing Rain
8:51 AM 30.9 °F 21.7 °F 27.0 °F 85% 29.75 in 3.0 mi ENE 11.5 mph - 0.00 in Rain Light Freezing Rain
9:10 AM 30.2 °F 21.9 °F 26.6 °F 86% 29.72 in 3.0 mi East 9.2 mph - 0.00 in Rain Light Freezing Rain
9:21 AM 30.2 °F 22.6 °F 28.4 °F 93% 29.71 in 3.0 mi East 8.1 mph - 0.00 in   Light Freezing Drizzle
9:35 AM 30.2 °F 23.4 °F 28.4 °F 93% 29.71 in 2.0 mi East 6.9 mph - 0.00 in   Light Freezing Drizzle
9:51 AM 30.9 °F 24.3 °F 28.0 °F 89% 29.73 in 2.0 mi East 6.9 mph - 0.00 in   Light Freezing Drizzle
10:15 AM 30.2 °F 22.6 °F 28.4 °F 93% 29.70 in 1.8 mi East 8.1 mph - 0.00 in Rain Light Freezing Rain
10:51 AM 32.0 °F 24.8 °F 28.9 °F 88% 29.72 in 2.5 mi ESE 8.1 mph - 0.01 in Rain Light Freezing Rain
11:18 AM 32.0 °F 26.4 °F 28.4 °F 87% 29.67 in 3.0 mi ESE 5.8 mph - 0.00 in Rain Light Rain
11:51 AM 32.0 °F 28.7 °F 30.0 °F 92% 29.69 in 5.0 mi ESE 3.5 mph - 0.00 in   Light Drizzle
12:08 PM 32.0 °F 27.5 °F 28.4 °F 87% 29.65 in 2.5 mi SE 4.6 mph - 0.00 in Rain Light Rain
12:21 PM 33.8 °F 29.6 °F 30.2 °F 87% 29.65 in 4.0 mi SSE 4.6 mph - 0.00 in Rain Light Rain
12:51 PM 33.1 °F 28.7 °F 30.0 °F 89% 29.67 in 8.0 mi SSW 4.6 mph - 0.00 in Rain Light Rain
1:51 PM 33.8 °F 28.6 °F 30.2 °F 87% 29.62 in 10.0 mi SSW 5.8 mph - N/A   Overcast
2:51 PM 34.0 °F 25.5 °F 30.0 °F 85% 29.65 in 9.0 mi SW 11.5 mph - 0.00 in   Light Drizzle
3:03 PM 33.8 °F 24.8 °F 30.2 °F 87% 29.62 in 1.5 mi WSW 12.7 mph - 0.00 in Snow Light Snow
3:29 PM 33.8 °F 25.8 °F 30.2 °F 87% 29.61 in 3.0 mi WSW 10.4 mph - 0.00 in Snow Light Snow
3:51 PM 35.1 °F 25.9 °F 30.9 °F 85% 29.65 in 9.0 mi WSW 13.8 mph 20.7 mph 0.00 in Snow Light Snow
4:15 PM 35.6 °F 27.5 °F 32.0 °F 87% 29.62 in 9.0 mi West 11.5 mph 25.3 mph 0.00 in   Overcast
4:20 PM 35.6 °F 26.2 °F 30.2 °F 81% 29.62 in 2.0 mi West 15.0 mph - 0.00 in Snow Light Snow
4:31 PM 35.6 °F 27.5 °F 32.0 °F 87% 29.62 in 3.0 mi WSW 11.5 mph 24.2 mph 0.00 in Snow Light Snow
4:51 PM 35.1 °F 26.4 °F 32.0 °F 89% 29.66 in 5.0 mi WSW 12.7 mph - 0.00 in   Light Drizzle
5:51 PM 35.1 °F 25.5 °F 30.9 °F 85% 29.67 in 10.0 mi West 15.0 mph 23.0 mph 0.00 in   Overcast
6:51 PM 34.0 °F 22.7 °F 28.9 °F 82% 29.71 in 5.0 mi West 19.6 mph 31.1 mph 0.00 in   Haze
7:51 PM 30.0 °F 16.6 °F 21.0 °F 69% 29.75 in 9.0 mi West 23.0 mph 33.4 mph 0.00 in Snow Light Snow
8:51 PM 27.0 °F 13.5 °F 18.0 °F 69% 29.79 in 10.0 mi West 19.6 mph 32.2 mph 0.00 in Snow Light Snow
9:51 PM 26.1 °F 11.3 °F 14.0 °F 60% 29.81 in 10.0 mi West 23.0 mph 35.7 mph 0.00 in Snow Light Snow
10:17 PM 24.8 °F 11.1 °F 15.8 °F 69% 29.78 in 7.0 mi West 18.4 mph 27.6 mph 0.00 in Snow Light Snow
10:51 PM 24.1 °F 7.1 °F 10.9 °F 57% 29.83 in 8.0 mi West 28.8 mph 35.7 mph 0.00 in Snow Light Snow
11:51 PM 23.0 °F 7.2 °F 10.9 °F 60% 29.84 in 10.0 mi West 23.0 mph 34.5 mph 0.00 in Snow Light Snow